Regional Weather Roundup
Issued by NWS

Home | Current Version | Previous Version | Graphics & Text | Print | Product List | Glossary On
Versions: 1 2 3 4 5 6 7 8 9 10 11 12 13 14 15 16 17 18 19 20 21 22 23 24 25 26 27 28 29 30 31 32 33 34 35 36 37 38 39 40 41 42 43 44 45 46 47 48 49 50
191
ASUS43 KBIS 190810
RWRND

NORTH DAKOTA REGIONAL WEATHER ROUNDUP
NATIONAL WEATHER SERVICE BISMARCK ND
300 AM CDT SAT AUG 19 2017

NOTE: "FAIR" INDICATES FEW OR NO CLOUDS BELOW 12,000 FEET WITH NO
SIGNIFICANT WEATHER AND/OR OBSTRUCTIONS TO VISIBILITY.


NDZ001>003-009>011-017-190900-
NORTHWEST NORTH DAKOTA

CITY           SKY/WX    TMP DP  RH WIND       PRES   REMARKS
WILLISTON      CLEAR     68  53  58 S6        29.81F
MINOT          CLEAR     69  53  56 S10       29.82F
MINOT AFB      CLEAR     63  53  71 SW9       29.80F
$$

NDZ018>021-031>035-040>046-190900-
SOUTHWEST NORTH DAKOTA

CITY           SKY/WX    TMP DP  RH WIND       PRES   REMARKS
BISMARCK       CLEAR     59  55  87 CALM      29.90F
DICKINSON      CLEAR     61  52  72 S10       29.86F
GARRISON         N/A     60  55  83 S5        29.86F
HETTINGER ARPT CLEAR     63  50  62 S9        29.91F
$$

NDZ004>008-012>016-024-026-027-054-190900-
NORTHEAST NORTH DAKOTA

CITY           SKY/WX    TMP DP  RH WIND       PRES   REMARKS
GRAND FORKS    CLEAR     58  56  93 SW7       29.83F
GRND FRKS AFB  CLEAR     57  54  90 SW7       29.84F
DEVILS LAKE    CLEAR     67  57  70 SW12      29.86F
$$

NDZ022-023-025-028>030-036>039-047>053-190900-
SOUTHEAST NORTH DAKOTA

CITY           SKY/WX    TMP DP  RH WIND       PRES   REMARKS
FARGO          CLEAR     62  59  90 SW7       29.87S
JAMESTOWN      CLEAR     55  52  89 CALM      29.88F
$$





USA.gov is the U.S. government's official web portal to all federal, state and local government web resources and services.